• Join FlightAware (Why Join?)
  • Login
  • US Flag GB Flag 
08:29 EDT


 

Airport Tracker/Info


-or-


 

Live Flight TrackerFlight Track Log ✈ N682RW ✈ 14-Jul-2013 ✈ KDTW - KEWR

Flight Track Log - Related Links

Times and Time Zones

All times are in EDT time to prevent confusion due to time zone crossing. See the N682RW flight status page for this flight to view local times or setup timezone preferences in your user account.

Time Position Orientation Groundspeed Altitude Reporting Facility
EDT Latitude Longitude Course Direction KTS MPH feet Rate Location/Type
18:33 42.1953 -83.3581 186° South 214 246 1,200  Level Cleveland Center
18:34 42.1639 -83.3622 186° South 228 262 2,700 3,000 Climbing Cleveland Center
18:35 42.0933 -83.3561 176° South 272 313 5,800 3,240 Climbing Cleveland Center
18:36 42.0275 -83.3086 152° Southeast 284 327 9,400 1,740 Climbing Cleveland Center
18:37 42.0394 -83.1553 84° East 404 465 10,000 660 Climbing Cleveland Center
18:38 42.0756 -83.0281 69° East 372 428 11,000 1,980 Climbing Cleveland Center
18:39 42.1097 -82.8978 70° East 365 420 14,000 2,820 Climbing Cleveland Center
18:40 42.1458 -82.7564 71° East 376 433 16,700 2,400 Climbing Cleveland Center
18:41 42.1817 -82.6147 71° East 392 451 18,800 1,980 Climbing Cleveland Center
18:42 42.2175 -82.4672 72° East 402 463 20,700 1,080 Climbing Cleveland Center
18:43 42.2139 -82.3072 92° East 409 471 21,000 120 Climbing Cleveland Center
18:44 42.2014 -82.1472 96° East 409 471 21,000 540 Level Cleveland Center
18:45 42.1928 -82.0069 95° East 422 486 22,100 1,500 Climbing Cleveland Center
18:46 42.1822 -81.8469 95° East 427 491 24,000 1,740 Climbing Cleveland Center
18:47 42.1714 -81.6786 95° East 438 504 25,600 1,980 Climbing Cleveland Center
18:48 42.1583 -81.5131 96° East 443 510 28,000 2,400 Climbing Cleveland Center
18:49 42.1450 -81.3392 96° East 436 502 30,400 1,500 Climbing Cleveland Center
18:50 42.1208 -81.1878 102° East 421 484 31,100 600 Climbing Cleveland Center
18:51 42.0925 -81.0281 103° East 431 496 31,600 540 Climbing Cleveland Center
18:52 42.0617 -80.8600 104° East 446 513 32,200 600 Climbing Cleveland Center
18:53 42.0308 -80.6867 103° East 468 539 32,900 900 Climbing Cleveland Center
18:54 41.9994 -80.5133 104° East 475 547 34,100 1,020 Climbing Cleveland Center
18:55 41.9703 -80.3486 103° East 461 531 35,000 420 Climbing Cleveland Center
18:56 41.9447 -80.2006 103° East 461 531 35,000  Level Cleveland Center
18:57 41.9128 -80.0364 105° East 456 525 35,000  Level Cleveland Center
18:58 41.8806 -79.8664 104° East 456 525 35,000  Level Cleveland Center
18:59 41.8525 -79.7022 103° East 451 519 35,000  Level Cleveland Center
19:00 41.8175 -79.5217 105° East 451 519 35,000  Level Cleveland Center
19:01 41.7867 -79.3578 104° East 451 519 35,000 -300 Level Cleveland Center
19:02 41.7600 -79.2108 104° East 451 519 34,400 -840 Descending Cleveland Center
19:03 41.7267 -79.0444 105° East 451 519 33,400 -1,080 Descending Cleveland Center
19:04 41.6906 -78.8564 104° East 459 528 32,300 -780 Descending Cleveland Center
19:06 41.6200 -78.4994 105° East 474 545 31,000 -420 Descending New York Center
19:07 41.5872 -78.3292 104° East 474 545 31,000  Level New York Center
19:08 41.5519 -78.1617 106° East 469 540 31,000  Level New York Center
19:09 41.5183 -77.9944 105° East 469 540 31,000  Level New York Center
19:10 41.4911 -77.8225 102° East 469 540 31,000  Level New York Center
19:11 41.4675 -77.6567 101° East 459 528 31,000  Level New York Center
19:12 41.4483 -77.5217 101° East 459 528 31,000 -900 Level New York Center
19:13 41.4214 -77.3336 101° East 445 512 29,300 -1,680 Descending New York Center
19:14 41.4000 -77.1878 101° East 420 483 27,800 -1,620 Descending New York Center
19:15 41.3786 -77.0444 101° East 401 461 26,100 -1,440 Descending New York Center
19:16 41.3586 -76.9100 101° East 385 443 25,000 -600 Descending New York Center
19:17 41.3344 -76.7725 103° East 375 432 25,000 -120 Level New York Center
19:18 41.2994 -76.6367 109° East 375 432 24,800 -780 Descending New York Center
19:19 41.2567 -76.4867 111° Southeast 402 463 23,500 -1,560 Descending New York Center
19:20 41.2158 -76.3397 110° East 419 482 21,800 -1,680 Descending New York Center
19:21 41.1786 -76.1961 109° East 419 482 20,200 -1,560 Descending New York Center
19:22 41.1469 -76.0694 108° East 413 475 18,700 -1,020 Descending New York Center
19:23 41.1078 -75.9206 109° East 401 461 18,200 -720 Descending New York Center
19:24 41.0697 -75.7856 110° East 396 456 17,300 -1,740 Descending New York Center
19:25 41.0336 -75.6536 110° East 391 450 14,900 -2,640 Descending New York Center
19:26 40.9953 -75.5217 111° Southeast 391 450 12,000 -2,040 Descending New York Center
19:27 40.9622 -75.4067 111° Southeast 373 429 10,900 -960 Descending New York Center
19:28 40.9311 -75.2947 110° East 347 399 10,100 -1,200 Descending New York Center
19:29 40.9000 -75.1800 110° East 319 367 8,500 -1,380 Descending New York Center
19:30 40.8706 -75.0767 111° Southeast 300 345 7,500 -780 Descending New York Center
19:31 40.8408 -74.9758 111° Southeast 295 339 7,000 -300 Descending New York Center
19:32 40.8042 -74.8969 122° Southeast 290 334 7,000  Level New York Center
19:33 40.7464 -74.8222 136° Southeast 271 312 7,000 -120 Level New York Center
19:34 40.7089 -74.7569 127° Southeast 255 293 6,800 -360 Descending New York Center
19:35 40.7164 -74.6617 84° East 227 261 6,300 -420 Descending New York Center
19:36 40.7292 -74.5831 78° East 232 267 6,000 -180 Descending New York Center
19:37 40.7869 -74.5394 30° Northeast 215 247 6,000  Level New York Center
19:38 40.8414 -74.5261 10° North 216 249 6,000 -180 Level New York Center
19:39 40.9167 -74.5000 15° North 230 265 5,600 -480 Descending New York TRACON
19:40 40.9667 -74.4333 45° Northeast 230 265 5,000 -300 Descending New York TRACON
19:41 41.0000 -74.3500 62° Northeast 237 273 5,000 -120 Level New York TRACON
19:42 41.0000 -74.2667 90° East 241 277 4,800 -540 Descending New York TRACON
19:43 41.0000 -74.1833 90° East 247 284 4,000 -420 Descending New York TRACON
19:44 40.9500 -74.1167 135° Southeast 229 264 4,000 -420 Level New York TRACON
19:45 40.9167 -74.0667 131° Southeast 192 221 3,200 -600 Descending New York TRACON
19:46 40.8667 -74.0500 166° South 181 208 2,900 -240 Descending New York TRACON
19:47 40.8333 -74.0833 217° Southwest 172 198 2,800 -540 Descending New York TRACON
19:48 40.7833 -74.1000 194° South 171 197 1,900 -900 Descending New York TRACON
19:49 40.7500 -74.1333 217° Southwest 159 183 1,000 -900 Descending New York TRACON
19:50 40.7000 -74.1500 194° South 146 168 200 -840 Descending New York TRACON
19:52 40.6833 -74.1667 159° South  Level FlightAware Approximate
19:59 40.6925 -74.1687 159° South  Level Estimated
20:00 40.6925 -74.1687 159° South  Level Estimated
20:01 40.6925 -74.1687 159° South  Level Estimated